FW6064 Weather Reports


time (UTC)temp
F
wind
direction
speed
knots
gust
knots
rain 1hr
in
rain 24hr
in
rain mn
in
humidity
%
barometer
mb
20260505071535 58 0 0.0 0.0 0.00 0.00 0.00 71 1015.8
20260505070059 58 0 0.0 0.0 0.00 0.00 0.00 70 1015.7
20260505064550 59 0 0.0 0.0 0.00 0.00 0.00 68 1015.7
20260505063042 60 0 0.0 0.0 0.00 0.00 0.00 67 1015.9
20260505061611 60 0 0.0 0.0 0.00 0.00 0.00 65 1015.9
20260505060052 61 0 0.0 0.0 0.00 0.00 0.00 64 1015.8
20260505054548 62 0 0.0 0.0 0.00 0.00 0.00 63 1015.8
20260505053043 62 0 0.0 0.0 0.00 0.00 0.00 62 1015.9
20260505051537 63 0 0.0 0.0 0.00 0.00 0.00 61 1016.1
20260505041539 62 0 0.0 0.0 0.00 0.00 0.00 61 1015.9
20260505040059 62 0 0.0 0.0 0.00 0.00 0.00 59 1015.8
20260505034544 63 0 0.0 0.0 0.00 0.00 0.00 58 1015.8
20260505033043 63 0 0.0 0.0 0.00 0.00 0.00 58 1015.9
20260505031550 62 0 0.0 0.0 0.00 0.00 0.00 59 1015.8
20260505030043 62 0 0.0 0.0 0.00 0.00 0.00 60 1015.8
20260505024543 61 0 0.0 0.0 0.00 0.00 0.00 60 1015.7
20260505023043 62 0 0.0 0.0 0.00 0.00 0.00 60 1015.9
20260505021543 62 0 0.0 0.0 0.00 0.00 0.00 57 1015.7
20260505020042 63 0 0.0 0.0 0.00 0.00 0.00 55 1015.9
20260505014542 64 0 0.0 0.0 0.00 0.00 0.00 52 1015.6
20260505013037 65 0 0.0 0.0 0.00 0.00 0.00 50 1015.5
20260505011545 66 0 0.0 0.0 0.00 0.00 0.00 49 1015.4
20260505010056 67 0 0.0 0.0 0.00 0.00 0.00 47 1015.1
20260505004543 68 0 0.0 0.0 0.00 0.00 0.00 46 1015.0
20260505003039 69 0 0.0 0.0 0.00 0.00 0.00 44 1015.1
20260505001536 69 0 0.0 0.0 0.00 0.00 0.00 44 1015.0
20260505000049 69 0 0.0 0.0 0.00 0.00 0.00 43 1014.9
20260504234540 70 0 0.0 1.7 0.00 0.00 0.00 41 1014.7
20260504233042 71 0 0.0 2.6 0.00 0.00 0.00 40 1014.9
20260504231539 71 0 0.0 1.7 0.00 0.00 0.00 39 1014.9
20260504230047 72 0 0.0 6.1 0.00 0.00 0.00 38 1014.9
20260504224542 72 0 0.0 4.3 0.00 0.00 0.00 38 1014.8
20260504223043 73 0 0.0 3.5 0.00 0.00 0.00 37 1014.8
20260504221542 74 0 0.0 5.2 0.00 0.00 0.00 36 1014.8
20260504220047 74 0 0.0 0.9 0.00 0.00 0.00 35 1014.7
20260504214537 75 0 0.0 7.0 0.00 0.00 0.00 34 1014.7
20260504213101 74 0 0.0 0.9 0.00 0.00 0.00 36 1014.7
20260504211544 75 0 0.0 6.1 0.00 0.00 0.00 35 1014.8
20260504210043 75 203 0.0 6.1 0.00 0.00 0.00 36 1014.9
20260504204542 75 0 0.0 4.3 0.00 0.00 0.00 35 1014.7
20260504203038 75 0 0.0 7.0 0.00 0.00 0.00 35 1014.8
20260504201535 74 0 0.0 2.6 0.00 0.00 0.00 38 1015.1
20260504200043 74 269 0.0 4.3 0.00 0.00 0.00 37 1015.2
20260504194539 74 0 0.0 3.5 0.00 0.00 0.00 35 1015.4
20260504193103 73 215 0.0 5.2 0.00 0.00 0.00 38 1016.0
20260504191538 73 209 0.0 7.0 0.00 0.00 0.00 39 1016.1
20260504190040 73 0 0.0 1.7 0.00 0.00 0.00 38 1016.5
20260504184543 72 0 0.0 6.1 0.00 0.00 0.00 37 1016.8
20260504183054 73 0 0.0 1.7 0.00 0.00 0.00 39 1017.1
20260504181540 71 0 0.0 3.5 0.00 0.00 0.00 38 1017.1
20260504180105 71 0 0.0 7.0 0.00 0.00 0.00 38 1017.3
20260504174543 71 0 0.0 5.2 0.00 0.00 0.00 35 1017.3
20260504173043 71 197 0.0 5.2 0.00 0.00 0.00 37 1017.6
20260504171541 70 0 0.0 7.0 0.00 0.00 0.00 37 1017.8
20260504081541 39 0 0.0 0.0 0.00 0.00 0.00 92 1020.7